Regional Weather Roundup
Issued by NWS

Home | Current Version | Previous Version | Text Only | Print | Product List | Glossary Off
Versions: 1 2 3 4 5 6 7 8 9 10 11 12 13 14 15 16 17 18 19 20 21 22 23 24 25 26 27 28 29 30 31 32 33 34 35 36 37 38 39 40 41 42 43 44 45 46 47 48 49 50

000
ASUS43 KLMK 031110
RWRKY
KENTUCKY REGIONAL WEATHER ROUNDUP
NATIONAL WEATHER SERVICE LOUISVILLE KY
700 AM EDT FRI JUL 03 2015

NOTE "FAIR" INDICATES FEW OR NO CLOUDS BELOW 12,000 FEET
WITH NO SIGNIFICANT WEATHER AND/OR OBSTRUCTIONS TO VISIBILITY.

KYZ001>023-026-027-061>063-070>075-031200-
WESTERN AND SOUTH CENTRAL KENTUCKY

CITY           SKY/WX    TMP DP  RH WIND       PRES   REMARKS
PADUCAH        CLOUDY    71  69  93 N3        29.85R FOG
HENDERSON      CLOUDY    72  68  88 NW3       29.84R
OWENSBORO      FOG       71  71 100 N5        29.84R VSB 1/8
HOPKINSVILLE   TSTM      72  72 100 CALM      29.84F
BOWLING GREEN  CLOUDY    73  70  90 SW3       29.85S
GLASGOW        CLOUDY    71  71 100 SW3       29.86R
$$

KYZ024-025-028>034-038-045-046-053-031200-
NORTH CENTRAL KENTUCKY

CITY           SKY/WX    TMP DP  RH WIND       PRES   REMARKS
LOUISVILLE/SDF CLOUDY    72  69  90 E3        29.85R
LOUISVILLE/LOU CLOUDY    72  69  90 E3        29.86R
FORT KNOX      FOG       70  70 100 N6        29.84S VSB 3/4
$$

KYZ035>037-039>044-047>052-055>060-089>105-031200-
NORTHEAST KENTUCKY

CITY           SKY/WX    TMP DP  RH WIND       PRES   REMARKS
LEXINGTON      CLOUDY    70  68  93 E5        29.88R
COVINGTON      LGT RAIN  67  64  90 NE6       29.90R FOG
FRANKFORT      CLOUDY    70  67  90 E7        29.86R
$$

KYZ054-064>069-076>088-106>120-031200-
SOUTHEAST KENTUCKY

CITY           SKY/WX    TMP DP  RH WIND       PRES   REMARKS
JACKSON        CLOUDY    68  67  96 CALM      29.90R
LONDON         LGT RAIN  71  65  81 S5        29.90R
SOMERSET       CLOUDY    68  68 100 CALM      29.89S
MIDDLESBORO    CLOUDY    68  68 100 CALM      29.91F FOG
MONTICELLO     CLOUDY    71  71 100 CALM      29.90R
$$



USA.gov is the U.S. government's official web portal to all federal, state and local government web resources and services.